N1PRS-9 Weather Reports


time (UTC)temp
C
wind
direction
speed
KPH
gust
KPH
rain 1hr
cm
rain 24hr
cm
rain mn
cm
humidity
%
barometer
mb
20260504194545 22 192 4.8 16.1 0.00 0.00 0.00 36 1008.6
20260504194034 22 153 1.6 14.5 0.00 0.00 0.00 37 1008.8
20260504193532 22 197 1.6 29.0 0.00 0.00 0.00 37 1008.8
20260504193043 22 180 6.4 29.0 0.00 0.00 0.00 34 1008.7
20260504192530 22 329 8.0 29.0 0.00 0.00 0.00 33 1008.8
20260504192032 22 236 3.2 22.5 0.00 0.00 0.00 34 1008.7
20260504191543 22 329 9.7 19.3 0.00 0.00 0.00 33 1008.6
20260504191032 22 267 3.2 16.1 0.00 0.00 0.00 34 1008.9
20260504190532 22 179 1.6 16.1 0.00 0.00 0.00 35 1008.8
20260504190107 22 176 1.6 20.9 0.00 0.00 0.00 36 1008.7
20260504185532 22 241 3.2 20.9 0.00 0.00 0.00 36 1008.9
20260504185033 22 248 3.2 20.9 0.00 0.00 0.00 35 1008.9
20260504184545 21 309 4.8 17.7 0.00 0.00 0.00 34 1008.9
20260504184032 21 175 4.8 16.1 0.00 0.00 0.00 36 1008.9
20260504183532 21 0 4.8 16.1 0.00 0.00 0.00 36 1008.8
20260504183045 21 135 3.2 14.5 0.00 0.00 0.00 35 1009.0
20260504182532 21 259 4.8 16.1 0.00 0.00 0.00 35 1009.0
20260504182033 21 338 6.4 16.1 0.00 0.00 0.00 35 1009.1
20260504181550 21 233 1.6 16.1 0.00 0.00 0.00 36 1009.1
20260504181031 21 140 1.6 17.7 0.00 0.00 0.00 38 1009.3
20260504180533 21 202 1.6 17.7 0.00 0.00 0.00 36 1009.2
20260504180045 21 205 4.8 22.5 0.00 0.00 0.00 35 1009.3
20260504175531 21 229 4.8 22.5 0.00 0.00 0.00 35 1009.3
20260504175032 21 309 1.6 20.9 0.00 0.00 0.00 37 1009.8
20260504174539 20 196 8.0 20.9 0.00 0.00 0.00 36 1009.8
20260504174033 20 259 4.8 24.1 0.00 0.00 0.00 35 1009.9
20260504173531 20 171 3.2 29.0 0.00 0.00 0.00 35 1009.9
20260504173044 20 152 3.2 29.0 0.00 0.00 0.00 37 1009.9
20260504172531 20 187 3.2 29.0 0.00 0.00 0.00 37 1010.0
20260504172031 20 211 11.3 29.0 0.00 0.00 0.00 34 1010.0
20260504171546 20 196 6.4 22.5 0.00 0.00 0.00 36 1010.2
20260504171032 20 182 4.8 19.3 0.00 0.00 0.00 36 1010.0
20260504170532 20 213 1.6 14.5 0.00 0.00 0.00 37 1010.0
20260504151032 17 256 6.4 29.0 0.00 0.00 0.00 39 1011.1
20260504150534 17 229 11.3 29.0 0.00 0.00 0.00 38 1011.1
20260504141031 15 209 3.2 19.3 0.00 0.00 0.00 45 1012.0
20260504140534 15 207 3.2 16.1 0.00 0.00 0.00 47 1012.0
20260504130531 12 213 1.6 9.7 0.00 0.00 0.00 54 1012.7
20260504110531 8 0 0.0 3.2 0.00 0.00 0.00 63 1012.5
20260504100530 7 0 0.0 3.2 0.00 0.00 0.00 62 1012.2
20260504081559 7 0 0.0 6.4 0.00 0.00 0.00 62 1011.5
20260504081032 7 0 0.0 6.4 0.00 0.00 0.00 62 1011.5
20260504080531 7 0 0.0 8.0 0.00 0.00 0.00 63 1011.5
20260504050533 5 0 0.0 1.6 0.00 0.00 0.00 65 1012.0
20260504045537 5 0 0.0 1.6 0.00 0.00 0.00 64 1012.0
20260504045032 5 0 0.0 1.6 0.00 0.00 0.00 67 1012.0
20260504044545 5 0 0.0 1.6 0.00 0.00 0.00 65 1012.0
20260504044035 5 0 0.0 0.0 0.00 0.00 0.00 66 1012.1
20260504043533 5 0 0.0 1.6 0.00 0.00 0.00 67 1012.0
20260504043047 5 0 0.0 1.6 0.00 0.00 0.00 65 1012.0
20260504042532 5 0 0.0 1.6 0.00 0.00 0.00 66 1011.9
20260504042033 5 270 0.0 1.6 0.00 0.00 0.00 65 1012.0
20260504041542 5 0 0.0 1.6 0.00 0.00 0.00 68 1012.0
20260504041033 5 0 0.0 0.0 0.00 0.00 0.00 67 1012.0
20260504040531 5 0 0.0 0.0 0.00 0.00 0.00 67 1011.9
20260504040043 5 0 0.0 0.0 0.00 0.00 0.00 67 1011.9
20260504035534 5 0 0.0 0.0 0.00 0.00 0.00 64 1011.9
20260504035031 6 0 0.0 0.0 0.00 0.00 0.00 65 1011.8
20260504034545 6 0 0.0 1.6 0.00 0.00 0.00 65 1011.7
20260504034033 6 0 0.0 1.6 0.00 0.00 0.00 61 1011.7
20260504033534 6 0 0.0 1.6 0.00 0.00 0.00 60 1011.5
20260504033048 6 0 0.0 0.0 0.00 0.00 0.00 62 1011.7
20260504032532 6 0 0.0 0.0 0.00 0.00 0.00 61 1011.6
20260504032035 6 0 0.0 0.0 0.00 0.00 0.00 61 1011.6
20260504031546 6 0 0.0 0.0 0.00 0.00 0.00 60 1011.6
20260504031033 6 0 0.0 1.6 0.00 0.00 0.00 61 1011.7
20260504030534 6 0 0.0 1.6 0.00 0.00 0.00 60 1011.6
20260504030047 6 0 0.0 0.0 0.00 0.00 0.00 61 1011.7
20260504025533 6 0 0.0 3.2 0.00 0.00 0.00 62 1011.7
20260504025033 6 0 0.0 3.2 0.00 0.00 0.00 60 1011.7
20260504024542 6 0 0.0 3.2 0.00 0.00 0.00 61 1011.6
20260504024033 7 0 0.0 3.2 0.00 0.00 0.00 60 1011.5
20260504023533 7 0 0.0 1.6 0.00 0.00 0.00 58 1011.6
20260504023048 7 0 0.0 1.6 0.00 0.00 0.00 60 1011.5
20260504022533 7 0 0.0 1.6 0.00 0.00 0.00 58 1011.5
20260504022030 7 0 0.0 1.6 0.00 0.00 0.00 59 1011.5
20260504021551 7 0 0.0 1.6 0.00 0.00 0.00 56 1011.5
20260504021032 7 0 0.0 1.6 0.00 0.00 0.00 56 1011.6
20260504020532 7 0 0.0 3.2 0.00 0.00 0.00 54 1011.5
20260504020046 7 0 0.0 3.2 0.00 0.00 0.00 55 1011.5
20260504015533 7 0 0.0 3.2 0.00 0.00 0.00 55 1011.5
20260504015036 7 0 0.0 1.6 0.00 0.00 0.00 52 1011.4
20260504014555 7 0 0.0 0.0 0.00 0.00 0.00 53 1011.4
20260504014037 7 0 0.0 0.0 0.00 0.00 0.00 54 1011.4
20260504013533 7 0 0.0 0.0 0.00 0.00 0.00 54 1011.4
20260504013046 7 0 0.0 1.6 0.00 0.00 0.00 55 1011.3
20260504012533 7 0 0.0 1.6 0.00 0.00 0.00 55 1011.3
20260504012033 7 0 0.0 1.6 0.00 0.00 0.00 55 1011.1
20260504011541 8 0 0.0 1.6 0.00 0.00 0.00 54 1011.1
20260504011033 8 0 0.0 0.0 0.00 0.00 0.00 53 1011.2
20260504010532 8 0 0.0 0.0 0.00 0.00 0.00 53 1011.1
20260504010057 8 0 0.0 0.0 0.00 0.00 0.00 51 1011.1
20260504005533 8 0 0.0 0.0 0.00 0.00 0.00 50 1010.9
20260504005034 8 0 0.0 0.0 0.00 0.00 0.00 50 1010.9
20260504004545 8 0 0.0 0.0 0.00 0.00 0.00 49 1010.8
20260504004030 8 0 0.0 0.0 0.00 0.00 0.00 48 1010.5
20260504003532 8 0 0.0 0.0 0.00 0.00 0.00 47 1010.6
20260504003044 9 0 0.0 0.0 0.00 0.00 0.00 48 1010.5
20260504002533 9 0 0.0 1.6 0.00 0.00 0.00 47 1010.3
20260504002032 9 0 0.0 3.2 0.00 0.00 0.00 46 1010.3
20260504001556 10 0 0.0 3.2 0.00 0.00 0.00 45 1010.1
20260504001033 10 0 0.0 3.2 0.00 0.00 0.00 45 1010.0
20260504000534 10 0 0.0 1.6 0.00 0.00 0.00 44 1010.0
20260504000048 10 270 0.0 3.2 0.00 0.00 0.00 44 1009.9
20260503235532 11 0 0.0 3.2 0.00 0.00 0.00 43 1009.8
20260503235033 11 0 0.0 3.2 0.00 0.00 0.00 43 1010.0
20260503234550 11 0 0.0 6.4 0.00 0.00 0.00 42 1009.9
20260503234033 11 0 0.0 9.7 0.00 0.00 0.00 40 1009.8
20260503233530 11 282 3.2 16.1 0.00 0.00 0.00 39 1009.8
20260503233054 12 336 3.2 16.1 0.00 0.00 0.00 38 1009.9
20260503232533 12 290 4.8 12.9 0.00 0.00 0.00 36 1009.8
20260503232033 12 276 3.2 9.7 0.00 0.00 0.00 38 1009.8
20260503231545 12 309 3.2 14.5 0.00 0.00 0.00 38 1009.7
20260503231033 12 302 3.2 16.1 0.00 0.00 0.00 38 1009.7
20260503230535 12 277 6.4 29.0 0.00 0.00 0.00 37 1009.7
20260503230047 12 22 9.7 29.0 0.00 0.00 0.00 36 1009.7
20260503225532 12 320 6.4 16.1 0.00 0.00 0.00 37 1009.6
20260503225032 12 328 6.4 19.3 0.00 0.00 0.00 37 1009.6
20260503224545 12 0 4.8 19.3 0.00 0.00 0.00 39 1009.6
20260503224033 12 266 8.0 19.3 0.00 0.00 0.00 37 1009.5
20260503223533 12 292 8.0 16.1 0.00 0.00 0.00 38 1009.5
20260503223044 12 274 4.8 17.7 0.00 0.00 0.00 39 1009.5
20260503222534 12 92 8.0 17.7 0.00 0.00 0.00 37 1009.4
20260503222033 12 346 9.7 20.9 0.00 0.00 0.00 36 1009.4
20260503221549 12 292 8.0 20.9 0.00 0.00 0.00 37 1009.4
20260503221033 13 288 8.0 29.0 0.00 0.00 0.00 36 1009.5
20260503220533 13 39 6.4 29.0 0.00 0.00 0.00 36 1009.5
20260503220057 13 311 11.3 24.1 0.00 0.00 0.00 36 1009.7
20260503215531 13 255 8.0 22.5 0.00 0.00 0.00 38 1009.6
20260503215032 13 318 9.7 22.5 0.00 0.00 0.00 37 1009.5
20260503214544 13 252 8.0 19.3 0.00 0.00 0.00 37 1009.5
20260503214034 13 251 11.3 22.5 0.00 0.00 0.00 37 1009.6
20260503213535 13 293 9.7 24.1 0.00 0.00 0.00 38 1009.5
20260503213048 13 309 6.4 24.1 0.00 0.00 0.00 37 1009.5
20260503212532 12 317 11.3 33.8 0.00 0.00 0.00 38 1009.5
20260503212032 12 293 8.0 33.8 0.00 0.00 0.00 39 1009.4
20260503211543 12 284 12.9 25.7 0.00 0.00 0.00 40 1009.7
20260503211031 12 344 4.8 22.5 0.00 0.00 0.00 39 1009.4
20260503210533 12 335 9.7 33.8 0.00 0.00 0.00 39 1009.3
20260503210053 12 309 12.9 33.8 0.00 0.00 0.00 40 1009.4
20260503205534 12 239 12.9 33.8 0.00 0.00 0.00 38 1009.2
20260503205033 12 263 8.0 41.8 0.00 0.00 0.00 42 1009.2
20260503204557 12 330 14.5 41.8 0.00 0.00 0.00 38 1009.4
20260503204032 12 286 9.7 32.2 0.00 0.00 0.00 38 1009.3
20260503203533 12 275 9.7 32.2 0.00 0.00 0.00 41 1009.4
20260503203056 11 23 14.5 29.0 0.00 0.00 0.00 39 1009.2
20260503202534 11 280 11.3 25.7 0.00 0.00 0.00 39 1009.2
20260503202031 12 296 14.5 30.6 0.00 0.00 0.00 38 1009.5
20260503201545 12 347 11.3 32.2 0.00 0.00 0.00 38 1009.2
20260503201032 12 150 11.3 32.2 0.00 0.00 0.00 38 1009.2
20260503200533 12 360 9.7 27.4 0.00 0.00 0.00 40 1009.0
20260503200047 12 293 12.9 37.0 0.00 0.00 0.00 39 1009.2
20260503195532 11 281 14.5 37.0 0.00 0.00 0.00 41 1009.1
20260503195032 11 283 14.5 37.0 0.00 0.00 0.00 40 1009.1